Wind_Speed
15 16 16 16 16 17 17 17 17 18 18 18 18 19 19 20 20 20 21 22 22 23 24 24 24 25 25 26 27 27 28 28 29 30 30 30 31 31
17 18 18 17 18 19 19 20 20 20 20 21 21 21 21 21 22 23 24 25 25 25 26 26 27 27 28 29 30 30 31 32 32 33 34 34 34 35
18 19 19 19 19 20 21 21 22 22 22 23 23 23 23 24 25 26 27 27 28 28 29 29 30 30 31 32 32 33 34 35 35 36 36 37 38 38
20 20 20 21 21 22 22 23 23 24 24 24 25 26 26 27 27 28 28 29 30 30 31 31 32 33 34 35 35 35 36 37 38 39 40 40 40 41
21 21 22 23 23 24 25 26 26 26 27 27 27 28 28 28 29 30 31 31 32 32 33 34 34 35 36 36 37 38 39 40 40 41 42 43 44 44
21 22 23 24 24 26 26 27 27 28 28 29 30 30 31 31 31 33 33 34 35 35 35 35 36 37 38 40 40 41 41 42 43 43 44 45 46 46
22 23 24 24 24 25 26 27 28 28 28 29 30 31 32 33 33 34 35 35 35 36 37 38 38 39 40 41 42 43 44 45 46 47 48 49 49 50
23 23 24 25 26 27 28 29 30 30 30 31 31 32 32 34 34 34 35 36 36 37 39 40 40 41 42 43 43 44 46 47 48 49 51 51 52 53
23 25 25 26 28 29 30 30 31 31 32 32 32 32 33 34 35 35 36 36 37 38 40 41 43 43 44 45 46 46 48 49 50 51 52 53 54 55
23 24 26 27 27 28 30 30 31 31 32 33 33 33 35 36 36 37 37 38 39 40 41 42 44 45 46 47 48 48 50 51 52 52 53 54 55 56
24 26 27 27 27 29 30 30 30 31 32 33 33 33 34 35 36 36 37 39 40 41 42 44 45 46 48 49 49 50 51 53 53 54 54 55 55 56
25 26 26 27 28 29 30 30 31 31 31 32 32 33 34 36 36 37 38 40 41 43 44 45 46 48 49 50 51 52 53 54 54 54 54 55 55 55
26 26 27 27 28 29 30 31 32 32 32 32 33 34 35 36 37 39 40 41 42 43 45 46 47 48 49 50 51 53 53 53 52 53 53 53 54 55
27 27 27 28 29 31 32 33 33 33 34 34 35 36 37 38 40 41 41 42 43 44 45 45 46 47 48 49 49 49 49 49 49 49 50 50 51 52
27 27 29 30 31 32 33 33 34 35 35 36 36 37 39 39 40 41 41 42 43 43 44 45 45 46 46 45 45 45 44 45 45 45 46 46 47 47
27 29 30 31 31 32 33 33 33 34 35 37 38 38 39 39 40 41 41 41 42 42 42 42 42 42 42 42 41 41 42 42 42 43 44 45 45 45
27 29 30 31 31 31 32 33 34 35 35 36 37 38 38 38 39 39 40 40 40 40 40 40 40 40 40 40 40 40 40 41 41 42 42 42 42 42
29 30 30 31 32 33 33 34 35 35 36 36 37 37 37 38 38 38 38 38 38 38 38 38 38 38 39 39 38 38 39 39 40 40 40 39 39 39
30 31 32 32 32 33 34 34 35 35 36 36 36 36 36 36 37 37 37 36 36 36 37 37 36 36 37 38 38 38 38 38 38 38 37 37 36 35
31 31 31 32 32 32 33 33 34 34 34 34 34 35 35 35 35 34 34 34 34 34 35 35 34 35 35 35 36 36 36 36 35 34 34 34 34 34
30 31 31 31 31 31 32 32 33 33 32 32 32 32 32 32 32 32 32 32 32 33 33 33 33 33 33 34 34 34 34 34 33 33 32 31 31 31
29 30 30 30 30 30 31 31 31 31 31 31 31 31 31 31 31 31 31 31 31 31 32 32 32 31 31 31 31 31 31 31 32 32 31 30 30 30
28 29 29 30 30 30 30 30 30 29 30 30 30 30 30 30 30 30 30 30 30 30 30 30 30 30 30 30 30 30 30 30 30 29 30 30 30 30
Wind_Direction
254 256 260 262 261 263 264 265 268 270 272 273 275 277 279 281 281 280 278 278 277 279 279 278 277 277 276 276 276 275 275 274 273 273 274 273 272 272
259 259 260 263 265 267 267 269 269 271 273 275 276 277 279 279 278 278 279 279 279 278 278 276 276 277 277 277 277 276 276 276 275 274 275 274 273 273
263 264 262 263 267 269 270 272 272 272 274 276 277 277 277 278 277 278 279 279 279 277 277 275 277 278 278 279 279 278 277 276 275 275 276 275 274 273
266 267 265 266 269 272 271 273 273 273 274 276 277 278 278 279 279 279 280 279 280 280 278 278 278 278 278 279 279 278 277 276 276 276 275 275 274 274
267 267 266 267 269 270 271 273 274 275 276 277 278 278 279 281 281 280 280 280 280 280 279 278 278 279 278 278 279 278 277 277 277 277 276 275 275 275
267 268 268 269 272 273 273 276 277 277 277 278 278 279 280 280 281 282 281 280 280 279 278 278 279 280 279 279 278 278 279 278 278 278 278 277 276 276
267 270 271 271 274 276 276 277 279 279 280 281 282 282 282 282 283 283 282 282 281 280 280 281 280 280 280 280 280 279 278 278 279 279 279 278 277 276
271 273 274 274 276 276 277 278 279 280 281 283 284 284 284 284 284 283 284 283 282 282 282 282 282 282 281 282 283 282 281 279 278 278 279 279 278 278
271 273 275 276 277 279 279 280 280 280 282 283 283 284 284 285 284 283 283 283 282 283 283 284 284 284 285 284 283 283 282 282 281 280 280 279 279 278
277 278 278 278 278 281 282 282 283 282 283 283 283 283 284 284 284 284 284 284 283 284 285 285 285 286 286 285 284 284 283 283 282 282 281 280 280 280
283 282 281 281 282 283 284 284 284 284 283 284 284 285 286 286 285 285 285 285 286 286 287 287 286 287 287 286 286 285 285 285 284 283 282 282 281 280
284 284 283 284 285 285 285 285 285 285 286 286 286 287 287 287 288 288 289 288 288 288 288 287 287 287 287 287 287 287 286 286 285 284 283 282 282 282
283 285 286 287 287 287 288 287 287 287 288 289 289 287 286 288 289 290 290 290 289 289 289 289 289 289 289 289 288 288 287 287 286 286 285 285 284 284
285 286 287 289 289 290 289 289 289 289 290 290 290 288 288 290 292 292 292 291 291 291 291 291 291 291 291 290 290 290 289 289 289 288 288 288 288 288
286 287 288 289 290 289 289 289 289 289 291 291 290 290 291 292 293 292 292 293 293 293 293 293 293 294 294 293 293 293 293 292 292 291 291 291 291 291
288 288 289 290 291 291 290 290 291 291 291 292 292 292 292 293 293 293 293 294 295 296 296 297 298 298 297 296 296 295 295 295 295 295 295 295 294 293
290 291 292 292 293 293 293 292 294 294 294 294 295 294 294 295 295 295 296 297 298 299 299 299 300 300 299 298 298 297 298 298 298 298 298 298 297 296
291 291 292 293 293 294 295 295 296 296 296 296 296 295 295 296 297 297 298 298 299 300 300 300 301 301 301 301 301 301 301 301 301 301 301 300 299 298
292 293 293 294 295 296 297 297 298 297 297 296 295 295 296 297 298 298 298 299 300 301 301 302 302 302 303 303 304 304 304 304 304 304 303 302 302 301
293 295 296 296 296 297 297 297 298 297 297 297 297 298 299 299 300 300 300 301 303 304 305 305 305 305 306 306 306 305 306 307 307 306 306 305 305 304
296 297 296 296 296 296 297 298 299 299 300 300 300 301 301 302 303 304 305 306 306 307 308 308 308 309 309 310 310 310 310 310 310 310 310 309 308 307
296 297 297 297 297 298 299 300 301 301 301 302 303 304 305 305 306 307 307 308 309 309 310 311 312 312 313 314 314 314 313 313 313 313 314 313 312 311
297 298 299 300 300 300 300 300 301 302 303 305 306 307 307 307 307 308 308 309 310 311 312 313 314 315 316 316 316 317 317 316 315 315 315 316 316 316
Height
5881 5881 5881 5881 5881 5882 5882 5882 5882 5881 5880 5880 5879 5877 5876 5875 5874 5873 5871 5870 5869 5867 5866 5864 5863 5861 5860 5859 5857 5856 5855 5854 5853 5852 5851 5849 5848 5847
5876 5877 5877 5877 5877 5877 5877 5877 5876 5876 5875 5874 5873 5872 5871 5869 5868 5867 5865 5864 5862 5861 5859 5857 5856 5854 5853 5851 5850 5848 5847 5846 5844 5843 5842 5841 5840 5838
5872 5872 5872 5872 5872 5872 5871 5871 5870 5870 5869 5868 5867 5866 5865 5863 5862 5860 5858 5857 5855 5853 5851 5850 5848 5847 5845 5843 5841 5840 5838 5836 5835 5834 5832 5831 5830 5828
5867 5867 5867 5867 5866 5866 5865 5865 5864 5863 5862 5861 5860 5859 5858 5856 5854 5853 5851 5849 5847 5845 5843 5841 5839 5838 5836 5834 5832 5830 5828 5826 5825 5823 5822 5820 5819 5817
5861 5861 5861 5861 5860 5860 5859 5859 5857 5856 5855 5854 5853 5851 5850 5848 5847 5845 5843 5840 5838 5836 5834 5832 5830 5828 5826 5824 5822 5819 5817 5816 5814 5812 5810 5808 5806 5805
5856 5855 5855 5855 5854 5853 5852 5852 5850 5849 5847 5846 5845 5843 5842 5840 5838 5836 5834 5831 5829 5827 5825 5823 5820 5818 5815 5813 5811 5808 5806 5804 5802 5800 5797 5795 5794 5792
5850 5850 5849 5848 5848 5847 5846 5844 5843 5841 5840 5838 5836 5834 5833 5831 5828 5826 5824 5821 5819 5817 5815 5813 5810 5807 5804 5802 5799 5797 5794 5792 5789 5787 5784 5781 5779 5777
5844 5843 5843 5842 5841 5840 5838 5837 5835 5833 5832 5830 5828 5826 5824 5821 5819 5816 5814 5812 5809 5807 5804 5802 5799 5796 5793 5791 5788 5785 5782 5779 5776 5773 5770 5767 5764 5761
5838 5837 5836 5835 5834 5832 5830 5828 5827 5825 5823 5821 5819 5817 5814 5812 5809 5807 5804 5802 5799 5796 5793 5790 5787 5784 5781 5778 5774 5771 5768 5765 5761 5758 5755 5752 5748 5745
5831 5830 5829 5827 5826 5824 5822 5820 5819 5816 5814 5812 5810 5807 5805 5802 5799 5797 5794 5791 5788 5785 5782 5779 5775 5771 5767 5764 5760 5757 5753 5750 5746 5742 5739 5735 5732 5728
5824 5823 5821 5820 5818 5816 5814 5812 5810 5808 5805 5803 5800 5797 5795 5792 5789 5787 5784 5780 5777 5774 5770 5766 5762 5758 5754 5750 5746 5742 5738 5734 5730 5726 5722 5719 5715 5711
5817 5815 5814 5812 5810 5808 5806 5803 5801 5799 5796 5793 5790 5788 5785 5782 5779 5776 5772 5769 5765 5762 5758 5754 5749 5745 5740 5735 5731 5727 5722 5718 5714 5710 5706 5701 5698 5694
5810 5808 5806 5804 5802 5799 5797 5795 5792 5789 5786 5784 5781 5778 5775 5771 5768 5764 5761 5757 5753 5749 5745 5740 5736 5731 5726 5721 5716 5711 5706 5702 5698 5693 5689 5685 5681 5677
5802 5800 5798 5796 5793 5791 5788 5785 5782 5779 5776 5774 5770 5767 5764 5760 5756 5753 5748 5744 5740 5736 5731 5727 5722 5717 5712 5707 5702 5696 5691 5687 5683 5678 5674 5669 5665 5661
5794 5792 5789 5787 5784 5781 5778 5775 5772 5769 5766 5763 5760 5756 5753 5749 5745 5741 5736 5732 5727 5723 5718 5714 5709 5704 5698 5693 5688 5683 5678 5673 5669 5664 5660 5655 5650 5646
5786 5783 5781 5778 5775 5772 5769 5765 5762 5759 5756 5753 5749 5745 5741 5737 5733 5729 5725 5720 5716 5711 5706 5701 5696 5691 5686 5681 5676 5671 5666 5662 5657 5652 5647 5642 5636 5632
5777 5775 5772 5769 5766 5763 5759 5756 5752 5749 5746 5742 5738 5734 5730 5726 5722 5718 5713 5708 5704 5699 5694 5689 5684 5679 5674 5670 5665 5660 5655 5650 5645 5640 5635 5629 5624 5619
5769 5766 5763 5759 5756 5753 5750 5746 5743 5739 5735 5731 5727 5723 5719 5715 5711 5707 5702 5698 5693 5688 5684 5679 5674 5669 5664 5658 5654 5649 5644 5639 5634 5628 5623 5618 5613 5608
5760 5757 5754 5750 5747 5744 5740 5736 5732 5729 5725 5721 5717 5712 5708 5705 5700 5696 5692 5687 5683 5678 5674 5669 5664 5659 5654 5649 5644 5639 5634 5629 5624 5618 5613 5608 5603 5598
5751 5748 5744 5741 5738 5734 5731 5727 5723 5719 5715 5710 5706 5703 5699 5695 5691 5686 5682 5678 5673 5669 5664 5659 5655 5650 5645 5640 5635 5629 5624 5619 5614 5609 5604 5599 5593 5588
5742 5739 5735 5732 5729 5725 5721 5717 5714 5710 5705 5701 5697 5694 5690 5686 5682 5678 5673 5669 5664 5660 5655 5651 5646 5641 5636 5631 5626 5620 5615 5610 5605 5600 5595 5591 5586 5581
5733 5730 5727 5723 5720 5716 5712 5708 5705 5701 5697 5693 5689 5685 5681 5677 5673 5669 5665 5660 5656 5651 5647 5642 5637 5633 5628 5623 5618 5613 5608 5603 5597 5592 5587 5582 5577 5572
5725 5721 5718 5715 5711 5707 5704 5700 5697 5693 5689 5685 5681 5677 5673 5669 5665 5661 5657 5653 5648 5644 5639 5635 5630 5625 5620 5616 5611 5606 5601 5596 5591 5586 5581 5575 5570 5565